FENGYUN 1C DEB

Satellite information

Favourite Embed

Satellite Type and Status

DEBRISIN ORBIT

Key statistics

Satellite FENGYUN 1C DEB at a glance.

Uptime

9662

Days in orbit

Revolutions

≈ 13.7

Per day

Orbit

SSO

Sun Synchronous Orbit

Inclination

99.3

Latest

Satellite identification and parameters

Extended collection of information and parameters for FENGYUN 1C DEB.

Object identification

Identified? True

Debris? True

Object name: FENGYUN 1C DEB

International designator: 1999-025CQC

Object number (NORAD): 32086

Object ID (CCSDS): 32086

Country: PEOPLES REPUBLIC OF CHINA (PRC)

Current information (Y/N): Y

RCS size: SMALL

Orbital parameters

Period: 105.225 minutes

Inclination: 99.2717 deg

SMA: 7383.123 km

Apoapsis: 1225.678 km

Periapsis: 784.297 km

RAAN: 350.7823 deg

Eccentricy: 0.02989117

Argument of periapsis: 272.1918 deg

Mean anomaly: 84.5033 deg

Mean motion: 13.68493169 rev/day

Mean motion (dot): 0.00004203 rev/day2

B* drag term: 0.003628786 1/REarth

Two-line elements (TLE)

Creation date: Oct. 21, 2025, 3:26 a.m.

Reference frame: TEME

Reference center: EARTH

Epoch: Oct. 20, 2025, 9:39 p.m. UTC

TLE line 0: 0 FENGYUN 1C DEB

TLE line 1: 1 32086U 99025CQC 25293.90216123 .00004203 00000-0 36288-2 0 9997

TLE line 2: 2 32086 99.2717 350.7823 0298912 272.1918 84.5033 13.68493169610588

Live tracking on map

Real-time ground track for satellite FENGYUN 1C DEB.

In-orbit conjunctions

A list of the most updated potential collisions computed for object FENGYUN 1C DEB.

Target Orbit TCA Probability of collision Miss distance Type
SL-14 DEB LEO 2024-12-23 09:43:36 0.0002721717 120.0 (m) DEBRIS
COSMOS 2251 DEB LEO 2024-11-11 08:07:46 0.000193602 172.0 (m) DEBRIS
DELTA 1 DEB SSO 2024-07-31 13:49:58 0.0001257722 311.0 (m) DEBRIS

Associated space launch

Chinese polar orbiting meteorological satellite

FENGYUN 1C DEB was lifted into orbit during the mission ‘Long March 4B | Feng Yun 1C’, on board a Long March 4B space rocket.

The launch took place on May 10, 1999, 1:33 a.m. from Launch Complex 7.

For more information about the launch, click the button.

Launch to space Long March 4B | Feng Yun 1C
Long March 4B | Feng Yun 1C

Agency: N/A

Status: Launch Successful

Launch date: May 10, 1999, 1:33 a.m. UTC

Rocket: Long March 4B

Launch pad: Launch Complex 7

Location: Taiyuan Satellite Launch Center, People's Republic of China

...

Latest news about this satellite

There are no fresh news available about this satellite. Check back as we update our databases every day.


Newsletter sign-up

Weekly statistics, charts and insights to help you stay on top of the space industry.